Temp
-5 -5 -5 -5 -5 -5 -5 -5 -5 -5 -4 -4 -3 -4 -4 -4 -5 -5 -5 -5 -5 -4 -5 -5 -3 -4 -4 -5 -4 -5 -5 -6 -6 -6 -5 -4 -4 -3 -4 -4 -3 -4 -3 -3 -3
-5 -5 -5 -5 -5 -5 -5 -5 -5 -5 -4 -4 -3 -4 -4 -4 -5 -4 -4 -4 -4 -5 -4 -4 -5 -4 -5 -5 -4 -5 -6 -6 -6 -6 -6 -5 -4 -4 -4 -3 -3 -3 -3 -3 -3
-5 -5 -5 -5 -5 -5 -5 -5 -5 -5 -4 -4 -4 -4 -5 -4 -5 -4 -4 -4 -4 -4 -4 -4 -4 -5 -4 -4 -4 -4 -4 -5 -6 -5 -4 -3 -2 -2 -4 -4 -4 -4 -4 -4 -4
-5 -5 -5 -5 -5 -5 -6 -6 -5 -5 -4 -4 -4 -4 -5 -4 -5 -4 -4 -4 -4 -3 -4 -4 -5 -5 -5 -5 -5 -5 -5 -5 -6 -5 -5 -5 -4 -3 -3 -3 -3 -3 -3 -3 -3
-5 -5 -6 -5 -5 -6 -6 -6 -5 -5 -5 -4 -4 -4 -5 -5 -5 -5 -5 -4 -4 -4 -3 -4 -5 -5 -4 -4 -5 -5 -5 -5 -6 -5 -6 -5 -3 -4 -4 -3 -3 -3 -3 -3 -3
-6 -5 -6 -6 -6 -6 -6 -6 -5 -5 -5 -5 -5 -5 -5 -5 -5 -5 -4 -4 -4 -4 -3 -3 -4 -4 -4 -5 -4 -4 -6 -5 -6 -4 -5 -4 -3 -4 -4 -4 -3 -3 -3 -3 -3
-6 -6 -6 -6 -6 -6 -6 -6 -5 -5 -5 -5 -5 -5 -5 -5 -5 -5 -4 -4 -4 -4 -5 -5 -3 -4 -4 -4 -4 -5 -5 -5 -5 -6 -6 -5 -4 -4 -4 -4 -3 -3 -3 -3 -3
-6 -6 -6 -6 -6 -6 -6 -6 -6 -6 -5 -6 -5 -5 -5 -5 -5 -5 -4 -3 -4 -4 -3 -5 -4 -4 -3 -4 -5 -4 -4 -5 -6 -6 -6 -5 -5 -4 -4 -4 -4 -4 -4 -4 -4
-6 -6 -6 -6 -6 -6 -6 -6 -6 -6 -6 -6 -6 -5 -5 -6 -6 -5 -4 -4 -4 -4 -4 -4 -4 -4 -5 -4 -4 -5 -5 -5 -5 -6 -5 -4 -4 -4 -3 -4 -4 -3 -4 -4 -4
-7 -6 -7 -6 -6 -6 -6 -6 -6 -6 -6 -6 -6 -5 -6 -6 -6 -5 -5 -5 -6 -5 -4 -4 -4 -4 -5 -4 -4 -4 -3 -5 -4 -4 -4 -3 -4 -4 -4 -4 -3 -3 -4 -3 -4
-7 -6 -7 -7 -6 -6 -7 -6 -6 -5 -5 -5 -5 -5 -6 -5 -6 -6 -5 -5 -6 -5 -4 -5 -4 -5 -5 -5 -5 -4 -4 -4 -4 -4 -3 -4 -4 -4 -4 -4 -4 -4 -4 -4 -4
-7 -6 -7 -7 -7 -7 -7 -6 -6 -7 -6 -5 -5 -5 -5 -5 -4 -5 -4 -4 -5 -5 -5 -5 -4 -4 -4 -5 -5 -6 -6 -5 -5 -4 -4 -4 -4 -4 -4 -4 -4 -4 -4 -4 -4
-7 -7 -7 -7 -7 -7 -7 -7 -7 -6 -6 -6 -5 -6 -5 -5 -5 -5 -5 -4 -4 -4 -5 -5 -5 -5 -5 -5 -5 -6 -6 -6 -4 -5 -4 -5 -5 -4 -4 -5 -5 -5 -4 -5 -5
-7 -7 -7 -7 -7 -7 -7 -6 -6 -6 -6 -6 -6 -5 -5 -5 -4 -5 -5 -4 -5 -5 -6 -5 -5 -5 -5 -5 -6 -6 -6 -6 -6 -5 -5 -5 -5 -5 -4 -4 -4 -4 -5 -5 -5
-6 -7 -7 -7 -7 -7 -7 -6 -6 -6 -6 -6 -6 -5 -5 -5 -5 -5 -5 -6 -6 -6 -4 -4 -4 -5 -5 -5 -6 -6 -6 -5 -6 -5 -5 -5 -6 -5 -5 -4 -4 -4 -4 -3 -4
-6 -7 -7 -7 -7 -7 -7 -7 -6 -6 -6 -6 -6 -6 -5 -5 -5 -5 -4 -5 -5 -5 -5 -3 -4 -4 -4 -5 -5 -5 -5 -5 -5 -6 -5 -5 -5 -5 -5 -5 -4 -4 -4 -4 -4
-6 -7 -7 -7 -6 -7 -7 -7 -6 -6 -6 -6 -6 -6 -5 -6 -6 -5 -4 -4 -4 -4 -4 -4 -5 -4 -5 -5 -6 -5 -5 -5 -5 -5 -5 -6 -5 -6 -5 -5 -5 -5 -5 -5 -6
-6 -7 -7 -7 -7 -7 -7 -7 -7 -6 -5 -5 -6 -6 -6 -5 -5 -5 -4 -5 -5 -5 -5 -4 -5 -4 -5 -5 -5 -5 -5 -5 -5 -6 -5 -5 -6 -5 -5 -5 -6 -6 -5 -6 -6
-7 -7 -7 -7 -7 -7 -7 -7 -7 -6 -6 -5 -6 -6 -6 -6 -5 -5 -5 -5 -5 -5 -5 -4 -4 -4 -5 -4 -5 -5 -5 -5 -5 -5 -5 -6 -6 -6 -5 -6 -6 -7 -7 -6 -6
-7 -7 -8 -7 -7 -7 -7 -7 -7 -7 -6 -6 -6 -6 -6 -6 -6 -6 -6 -5 -5 -5 -5 -5 -5 -5 -5 -6 -5 -5 -5 -5 -5 -5 -5 -5 -6 -6 -6 -7 -7 -7 -7 -6 -6
-7 -8 -7 -7 -7 -7 -8 -7 -7 -6 -6 -6 -6 -6 -6 -6 -6 -6 -6 -5 -4 -6 -5 -5 -5 -5 -6 -5 -5 -5 -5 -5 -5 -5 -5 -5 -6 -6 -7 -7 -7 -7 -7 -6 -6
-8 -8 -8 -7 -7 -7 -8 -7 -7 -7 -7 -7 -6 -4 -6 -6 -7 -7 -6 -5 -5 -7 -6 -6 -6 -6 -6 -6 -6 -6 -5 -5 -5 -5 -5 -5 -6 -6 -6 -7 -7 -7 -7 -7 -7
-8 -8 -8 -7 -7 -8 -9 -8 -7 -7 -7 -7 -7 -7 -6 -6 -6 -6 -6 -6 -6 -6 -6 -6 -6 -5 -6 -6 -6 -6 -6 -6 -5 -5 -6 -6 -6 -6 -7 -7 -7 -7 -7 -7 -7
-8 -8 -8 -7 -7 -8 -9 -8 -7 -7 -7 -7 -7 -8 -6 -6 -6 -5 -6 -6 -6 -6 -6 -6 -5 -6 -6 -6 -6 -6 -6 -6 -6 -6 -6 -6 -6 -6 -6 -6 -6 -6 -6 -7 -7
-8 -8 -8 -8 -8 -8 -8 -8 -8 -8 -7 -7 -7 -7 -7 -7 -7 -6 -6 -7 -6 -6 -7 -6 -6 -7 -7 -6 -6 -6 -6 -6 -6 -6 -6 -6 -6 -6 -6 -6 -6 -6 -7 -7 -7
-8 -8 -8 -8 -7 -8 -8 -8 -8 -7 -7 -7 -7 -7 -7 -6 -6 -6 -6 -7 -7 -7 -6 -6 -6 -7 -6 -6 -6 -6 -7 -6 -6 -6 -6 -6 -6 -7 -7 -7 -7 -7 -7 -7 -7
-8 -8 -8 -8 -8 -8 -8 -8 -8 -8 -7 -7 -7 -8 -7 -7 -6 -6 -7 -6 -6 -7 -7 -6 -6 -6 -6 -6 -6 -6 -6 -7 -7 -6 -5 -5 -6 -7 -7 -7 -7 -7 -7 -6 -6
Height
5901 5900 5900 5901 5903 5905 5905 5907 5909 5912 5915 5917 5920 5922 5925 5926 5927 5927 5929 5929 5927 5927 5928 5928 5930 5932 5929 5928 5929 5927 5929 5927 5926 5928 5927 5928 5928 5928 5930 5930 5929 5928 5928 5927 5928
5899 5899 5899 5900 5901 5904 5905 5906 5909 5911 5914 5917 5920 5923 5925 5927 5927 5928 5930 5929 5927 5927 5929 5932 5931 5931 5932 5929 5930 5930 5930 5928 5927 5930 5930 5929 5929 5930 5930 5930 5928 5928 5928 5927 5927
5898 5897 5898 5899 5900 5903 5904 5906 5908 5911 5914 5918 5920 5923 5926 5927 5928 5929 5929 5928 5927 5927 5928 5930 5931 5931 5934 5936 5937 5931 5932 5929 5928 5930 5929 5929 5928 5932 5931 5930 5929 5930 5929 5928 5928
5895 5896 5896 5897 5899 5902 5904 5905 5907 5910 5914 5918 5921 5923 5926 5926 5929 5929 5929 5928 5928 5928 5927 5929 5933 5935 5937 5933 5933 5933 5934 5932 5932 5932 5931 5929 5930 5932 5933 5933 5932 5931 5931 5930 5928
5894 5894 5894 5896 5898 5900 5903 5904 5907 5910 5913 5917 5920 5923 5925 5926 5928 5928 5929 5929 5930 5930 5929 5926 5930 5930 5933 5928 5930 5932 5934 5935 5935 5934 5932 5931 5932 5932 5932 5933 5931 5931 5930 5930 5930
5892 5892 5892 5895 5897 5899 5901 5903 5906 5909 5913 5917 5920 5922 5925 5926 5926 5927 5928 5929 5931 5932 5932 5933 5935 5937 5921 5932 5931 5915 5934 5934 5935 5936 5933 5932 5934 5933 5931 5932 5932 5931 5931 5930 5931
5890 5889 5891 5893 5895 5897 5900 5903 5906 5909 5913 5917 5920 5922 5924 5926 5926 5927 5927 5927 5930 5933 5934 5933 5932 5940 5938 5938 5938 5935 5937 5935 5938 5937 5937 5934 5934 5933 5932 5933 5932 5931 5932 5933 5933
5887 5887 5889 5891 5894 5896 5898 5902 5905 5908 5913 5917 5919 5921 5923 5925 5925 5925 5925 5926 5929 5934 5935 5934 5937 5938 5936 5935 5934 5934 5935 5933 5939 5940 5939 5937 5936 5934 5934 5935 5934 5935 5935 5935 5935
5885 5886 5887 5889 5892 5895 5897 5901 5904 5908 5912 5916 5919 5921 5923 5925 5924 5924 5926 5927 5931 5936 5939 5937 5938 5936 5936 5936 5936 5939 5937 5939 5942 5941 5940 5940 5939 5938 5939 5937 5938 5937 5936 5936 5935
5883 5884 5886 5887 5890 5893 5896 5900 5904 5906 5911 5914 5917 5922 5923 5923 5923 5927 5928 5930 5931 5934 5937 5936 5938 5936 5935 5939 5941 5942 5941 5942 5944 5944 5943 5944 5943 5942 5941 5940 5940 5938 5938 5937 5936
5880 5882 5884 5885 5889 5892 5895 5899 5905 5911 5914 5917 5918 5920 5922 5922 5923 5926 5929 5932 5932 5935 5936 5936 5937 5940 5939 5940 5943 5944 5942 5943 5942 5946 5947 5948 5947 5945 5943 5943 5941 5940 5938 5938 5938
5877 5880 5882 5883 5887 5890 5893 5898 5904 5908 5912 5915 5919 5922 5923 5924 5924 5928 5932 5934 5935 5936 5936 5939 5939 5939 5939 5943 5943 5940 5941 5940 5942 5945 5947 5949 5948 5950 5948 5942 5941 5941 5940 5940 5940
5873 5877 5879 5882 5886 5890 5894 5898 5901 5905 5911 5914 5916 5919 5922 5925 5928 5930 5932 5932 5933 5935 5937 5939 5940 5941 5941 5942 5941 5942 5942 5939 5944 5944 5945 5947 5948 5949 5945 5941 5940 5943 5942 5942 5942
5870 5874 5877 5881 5886 5888 5891 5896 5902 5906 5911 5915 5917 5919 5923 5926 5929 5931 5930 5930 5931 5934 5937 5939 5940 5941 5940 5943 5945 5943 5945 5947 5944 5946 5947 5946 5947 5946 5944 5943 5943 5944 5944 5945 5944
5866 5871 5874 5878 5881 5884 5891 5897 5903 5908 5911 5914 5917 5919 5921 5926 5928 5930 5930 5930 5929 5934 5938 5937 5938 5939 5939 5941 5943 5946 5945 5945 5946 5950 5947 5946 5946 5945 5943 5941 5943 5942 5942 5941 5939
5863 5868 5872 5875 5880 5887 5892 5898 5904 5910 5910 5914 5916 5920 5923 5923 5925 5928 5930 5930 5933 5937 5936 5938 5939 5938 5939 5940 5941 5943 5946 5948 5949 5947 5947 5947 5946 5944 5942 5941 5941 5940 5940 5938 5936
5860 5865 5869 5873 5880 5885 5892 5897 5903 5906 5910 5912 5915 5918 5922 5923 5923 5927 5929 5931 5934 5936 5938 5937 5939 5940 5940 5941 5943 5945 5946 5947 5949 5947 5945 5944 5944 5942 5939 5940 5939 5938 5937 5935 5933
5857 5862 5867 5872 5877 5882 5889 5895 5900 5904 5907 5909 5912 5915 5921 5924 5924 5925 5926 5929 5933 5936 5936 5937 5939 5940 5939 5942 5945 5946 5947 5946 5947 5944 5944 5943 5943 5941 5939 5940 5939 5936 5934 5933 5931
5855 5860 5865 5869 5875 5882 5889 5894 5897 5901 5904 5907 5912 5917 5919 5923 5924 5925 5928 5927 5931 5933 5936 5938 5939 5939 5941 5942 5945 5947 5947 5946 5946 5944 5942 5940 5941 5940 5938 5939 5938 5935 5934 5935 5933
5852 5858 5861 5866 5873 5882 5889 5892 5896 5900 5902 5906 5909 5910 5915 5917 5918 5921 5924 5926 5929 5929 5932 5935 5937 5939 5940 5942 5944 5945 5946 5946 5944 5942 5940 5938 5938 5938 5937 5936 5937 5933 5934 5934 5932
5850 5854 5860 5866 5874 5882 5888 5891 5895 5896 5900 5903 5905 5908 5911 5913 5915 5916 5921 5924 5925 5927 5930 5934 5936 5939 5940 5942 5944 5945 5944 5944 5944 5942 5938 5937 5936 5936 5936 5934 5932 5933 5931 5931 5928
5848 5853 5859 5866 5874 5882 5885 5891 5895 5894 5893 5894 5899 5898 5909 5912 5913 5915 5916 5916 5916 5925 5930 5932 5934 5935 5938 5940 5940 5942 5941 5940 5941 5939 5936 5935 5935 5932 5932 5932 5932 5933 5931 5927 5924
5845 5852 5857 5863 5871 5877 5883 5887 5891 5895 5893 5894 5898 5900 5905 5909 5912 5913 5908 5913 5910 5920 5929 5932 5933 5934 5934 5938 5939 5938 5938 5937 5937 5937 5935 5934 5933 5931 5930 5931 5931 5930 5927 5924 5920
5845 5851 5857 5863 5868 5870 5876 5884 5889 5893 5897 5897 5901 5903 5907 5908 5912 5916 5912 5907 5916 5919 5926 5927 5929 5930 5934 5934 5935 5936 5935 5934 5934 5933 5933 5932 5932 5931 5930 5929 5927 5926 5922 5917 5912
5843 5849 5855 5861 5867 5872 5877 5882 5889 5892 5896 5899 5901 5906 5907 5907 5908 5911 5910 5913 5916 5917 5922 5924 5927 5930 5930 5931 5931 5932 5931 5930 5929 5929 5928 5927 5928 5928 5926 5924 5922 5920 5916 5912 5907
5843 5849 5855 5859 5861 5866 5875 5881 5887 5888 5892 5894 5896 5900 5902 5905 5908 5911 5915 5916 5918 5920 5922 5922 5926 5928 5928 5928 5929 5929 5926 5923 5923 5924 5924 5924 5924 5922 5921 5920 5918 5915 5909 5903 5898
5842 5848 5852 5856 5860 5864 5872 5878 5876 5882 5889 5891 5895 5897 5900 5902 5906 5910 5913 5912 5915 5917 5919 5921 5922 5924 5926 5926 5927 5925 5921 5921 5919 5918 5918 5918 5917 5916 5915 5913 5909 5904 5899 5894 5889
Wind_Speed
8 7 6 7 8 9 8 11 15 17 19 18 16 14 13 11 9 8 10 8 7 9 9 10 9 15 18 15 12 16 15 15 12 7 7 8 10 11 10 9 8 12 11 13 15
8 7 7 8 10 10 10 13 17 19 20 19 17 15 13 11 9 10 9 8 7 6 9 10 12 16 13 19 17 20 12 14 16 9 2 5 6 13 5 6 8 8 7 7 10
8 8 7 9 12 12 11 14 18 20 21 20 17 16 13 11 9 9 9 8 7 8 11 9 14 18 14 11 9 14 11 14 13 11 10 7 11 14 12 8 8 6 5 4 4
8 8 8 10 13 13 12 15 20 21 22 20 17 15 13 11 9 9 7 6 6 8 12 8 7 11 11 12 13 12 14 10 12 7 16 12 15 12 10 8 4 4 5 6 6
9 9 9 11 14 14 13 16 21 22 22 20 16 14 12 12 9 10 8 6 4 8 9 10 10 4 19 19 17 15 13 12 12 2 10 6 12 15 16 14 11 8 6 7 7
9 9 9 11 15 15 15 18 22 23 22 19 16 13 11 11 11 10 9 9 7 10 6 1 3 5 9 10 15 9 19 15 9 4 7 8 6 11 13 13 12 12 8 7 7
10 10 10 11 16 16 17 20 23 24 22 19 16 13 12 10 11 9 10 11 11 9 10 4 4 6 8 3 12 14 14 14 13 13 10 10 12 9 13 12 13 15 15 11 9
10 10 10 13 17 18 19 22 24 23 21 18 16 14 11 11 9 9 8 11 16 11 10 9 5 3 8 12 25 21 17 19 17 17 11 12 10 11 9 10 12 10 11 10 10
10 10 10 15 18 19 21 23 24 23 20 18 16 13 12 12 9 8 6 4 12 11 7 8 8 7 16 14 22 24 22 21 16 14 12 14 14 13 10 9 6 5 8 7 10
12 11 10 17 19 20 23 24 24 23 21 19 17 14 13 15 10 9 7 6 6 9 6 10 19 17 19 14 9 16 23 23 16 18 15 16 17 16 16 13 13 15 13 14 15
15 13 12 18 21 21 24 25 24 20 16 15 16 14 14 18 14 7 8 7 8 9 13 15 25 16 16 17 21 17 21 21 18 10 16 16 18 21 16 11 14 16 15 15 14
19 15 14 20 22 23 26 25 19 15 16 15 12 13 13 11 13 8 4 4 9 11 11 12 17 8 9 14 20 25 20 17 11 15 20 17 20 10 15 13 14 14 16 15 11
22 18 16 20 22 22 22 22 21 19 16 14 14 16 15 12 10 7 4 1 11 15 12 22 15 13 13 15 18 18 11 8 9 17 18 11 9 11 20 17 16 13 16 16 15
25 20 18 21 22 25 27 26 21 17 15 11 11 13 9 10 7 10 8 5 18 20 23 21 19 16 13 15 19 14 11 4 8 12 12 9 6 14 19 18 15 11 12 12 11
28 22 20 24 28 31 28 24 20 15 13 13 12 12 10 8 6 11 10 12 22 27 20 21 15 14 18 24 20 12 6 5 18 7 6 11 3 8 13 18 7 13 15 16 18
29 24 22 25 28 27 24 22 19 16 15 12 13 10 8 8 9 12 8 15 14 19 14 14 16 11 23 26 18 8 6 14 10 7 6 3 4 7 14 14 10 16 17 21 24
29 24 23 27 29 29 27 23 18 16 18 20 17 12 10 10 9 9 8 19 14 17 14 13 9 9 27 20 12 11 9 10 9 11 6 4 6 7 15 8 12 15 18 26 24
29 25 24 28 33 33 31 27 22 18 20 24 23 19 8 9 14 13 8 10 9 10 4 12 10 15 26 20 10 17 10 6 9 14 10 13 10 11 9 6 11 8 17 25 26
28 25 24 32 36 34 32 26 25 22 23 28 22 15 14 11 15 17 10 12 5 7 4 13 15 18 21 9 11 9 6 3 6 7 9 12 4 12 14 12 3 7 8 22 20
27 26 28 36 38 34 31 27 24 20 22 27 25 23 15 6 7 8 12 15 10 1 14 18 16 15 14 12 13 14 11 6 3 4 4 5 8 6 6 7 2 7 14 20 14
29 28 28 34 37 34 30 30 23 18 27 30 24 20 15 17 17 14 17 19 17 7 13 11 19 16 8 10 6 12 13 15 10 7 6 5 5 5 4 8 12 15 24 18 23
30 27 27 34 37 34 31 26 24 8 14 16 21 18 6 23 19 21 20 20 5 28 22 23 18 19 11 10 6 13 12 12 19 13 15 10 9 10 10 12 16 22 25 29 31
31 27 29 36 36 38 29 30 20 19 13 5 5 13 6 14 9 15 28 8 11 32 24 18 14 8 18 14 10 7 3 6 9 21 9 9 11 15 17 14 24 27 32 36 37
30 26 28 32 36 42 37 32 30 21 18 14 4 7 8 15 16 17 10 10 7 15 12 11 9 5 10 12 20 17 13 11 12 13 16 21 20 23 25 29 31 32 35 34 39
31 27 28 31 33 32 36 34 31 19 16 18 15 13 10 7 2 6 6 5 14 13 4 11 12 11 15 15 16 16 21 23 22 23 18 18 20 28 31 32 35 36 37 40 43
30 25 26 30 36 39 38 32 25 25 24 21 20 17 18 17 8 1 16 6 10 5 3 12 20 22 24 23 20 19 25 27 26 18 17 22 27 30 32 33 31 36 40 44 44
29 25 26 29 33 37 36 35 28 20 20 23 20 27 20 16 16 11 8 14 14 8 2 13 20 25 29 32 28 20 22 23 19 19 20 22 25 30 33 36 38 41 40 40 40
Wind_Direction
270 254 235 228 217 208 192 185 179 179 182 178 179 166 158 159 169 151 145 135 140 146 159 155 126 108 120 131 132 111 104 96 76 79 60 70 66 68 69 85 75 73 66 68 83
260 248 230 222 212 206 195 186 180 178 182 180 180 170 163 167 182 166 141 154 162 180 190 150 141 141 149 151 151 105 111 97 94 56 76 130 55 68 66 83 59 52 61 68 70
253 248 231 222 211 207 196 188 183 180 182 183 179 173 170 175 185 166 148 158 170 208 204 161 166 161 133 147 133 121 91 91 85 47 34 67 56 73 86 65 45 52 52 61 80
252 241 232 225 211 203 199 190 185 182 183 186 177 172 177 184 189 174 164 163 184 196 177 174 174 168 163 126 118 101 111 69 60 19 37 29 32 48 53 69 55 33 60 63 59
243 237 233 226 209 202 199 191 186 185 183 186 174 171 179 189 193 191 183 195 183 171 184 169 162 272 169 136 141 153 127 80 91 76 29 32 56 54 41 37 41 35 49 57 66
236 236 231 225 206 201 198 192 187 186 184 184 172 176 183 189 195 201 203 206 182 172 179 208 185 88 78 120 135 134 88 85 77 82 31 30 28 38 46 35 35 41 45 54 59
233 228 229 218 203 201 196 192 188 186 185 182 177 184 190 193 198 209 224 212 204 179 148 251 264 135 92 45 107 78 101 80 85 67 90 69 34 44 50 40 41 43 37 40 42
229 226 226 210 200 197 194 193 188 186 186 180 179 189 188 181 192 224 215 205 193 199 179 179 157 68 103 151 112 104 97 86 87 77 76 59 51 56 58 35 33 42 54 59 50
224 223 222 202 196 194 193 191 189 185 183 180 179 190 176 171 186 205 203 189 187 195 174 165 168 154 109 83 91 81 79 97 113 79 74 69 57 53 50 49 50 73 86 70 59
221 221 220 197 194 195 193 188 189 186 184 181 184 183 178 178 182 183 145 134 153 197 187 159 154 121 153 116 113 92 92 93 99 98 95 82 72 65 58 65 67 66 72 68 57
217 219 215 195 193 194 191 189 188 186 187 188 187 180 183 192 177 168 153 160 119 116 147 149 161 137 99 102 109 83 81 80 82 79 78 74 73 73 66 64 73 70 67 61 57
212 217 211 194 193 193 189 188 178 179 187 189 190 188 192 218 198 167 138 146 158 145 116 125 146 122 86 99 104 82 79 72 68 61 62 75 65 88 70 79 80 83 72 51 55
208 213 209 194 192 191 183 185 180 181 181 189 182 187 197 209 209 152 140 191 167 181 162 138 135 126 93 95 96 93 87 74 43 37 40 68 43 42 53 72 94 87 41 43 44
206 210 207 191 187 185 182 188 177 178 177 179 185 180 194 211 208 122 95 67 157 133 142 155 117 116 107 114 114 126 100 57 10 41 41 38 38 41 48 78 117 87 53 55 24
203 207 204 187 185 185 182 183 172 176 169 167 180 178 185 207 182 137 116 104 151 154 166 163 156 177 136 140 134 117 123 7 100 39 14 38 102 47 36 24 42 52 33 21 9
197 204 200 188 188 181 178 180 169 174 163 163 153 176 180 190 165 146 133 135 161 177 177 179 174 148 137 131 131 120 92 66 43 12 131 3 340 16 33 15 45 15 8 13 6
193 202 197 184 179 176 178 172 169 179 160 153 147 155 160 155 160 188 156 153 156 174 173 158 168 166 145 135 121 111 75 46 42 7 348 316 302 339 13 18 16 2 12 10 358
192 199 194 180 177 177 178 166 173 186 180 154 152 144 146 167 161 183 168 125 99 131 173 171 140 165 156 152 129 139 108 42 329 316 325 320 285 310 2 27 360 328 4 2 344
192 195 188 179 180 180 178 166 181 184 179 157 148 140 148 172 175 172 185 158 132 160 99 177 160 163 171 176 152 127 123 177 338 305 318 322 10 14 338 349 317 298 329 344 347
192 191 188 182 181 181 170 178 188 185 186 156 145 154 150 187 137 179 207 181 205 225 170 176 144 129 126 141 197 164 166 170 262 18 283 340 48 349 323 351 229 244 288 325 348
189 193 187 183 180 179 174 184 187 207 183 170 164 176 176 221 211 239 219 210 196 167 179 176 135 132 124 153 146 175 199 206 221 274 288 307 279 204 247 251 259 281 290 316 324
191 192 187 180 180 176 181 183 196 220 193 153 161 166 307 225 193 220 226 228 168 144 126 158 147 165 183 189 201 262 276 232 217 229 256 277 291 229 275 258 275 281 306 321 320
191 191 183 182 174 176 179 195 185 186 188 78 348 81 219 248 254 279 287 203 135 138 156 144 175 204 176 188 210 185 222 282 221 220 251 265 272 263 253 257 296 307 313 311 309
191 190 185 180 181 187 180 192 200 189 187 174 223 200 206 227 250 250 231 246 185 182 166 179 196 149 178 187 191 205 205 246 261 253 234 238 255 261 267 275 290 299 302 304 300
189 187 180 179 186 196 188 194 195 200 205 187 199 202 180 185 80 319 201 31 93 101 170 219 206 192 233 238 228 229 232 235 243 256 260 276 263 262 272 284 289 290 291 290 288
191 187 180 184 187 197 198 187 192 199 208 190 189 193 211 234 219 214 190 186 113 95 116 197 221 213 229 244 252 263 262 273 275 272 280 270 269 276 282 286 287 292 292 288 290
191 186 185 190 188 195 198 207 200 174 192 189 171 197 194 219 227 207 253 139 128 142 188 197 212 224 234 245 256 259 260 258 255 280 297 302 299 291 285 285 282 281 284 287 293